[[{"header":{"parameterUnit":"m.s-1","parameterCategory":1,"la1":30.2991,"la2":30.254,"lo1":-89.0895,"lo2":-89.0444,"dy":0.0017,"dx":0.0017,"nx":28,"ny":28,"refTime":"2024-07-29T03:00:00:Z","depth":0,"parameterNumber":2,"parameterNumberName":"U-component_of_WINDS"},"data":[0,0,0,0,0,0,0,0,0,0,0,0,0,0,0,0,0,0,0,0,0,0,0,0,0,0,0,0,0,0,0,0,0,0,0,0,0,0,0,0,0,0,0,0,0,0,0,0,0,0,0,0,0,0,0,0,0,0,3.7396,3.7396,0,3.7463,3.7464,3.7464,3.7385,3.7382,3.7379,3.7376,3.7445,3.7449,3.7454,0,0,0,0,0,0,0,0,0,0,0,0,0,3.7197,3.7201,3.7396,3.7397,3.7397,3.7463,3.7464,3.7464,3.7386,3.7382,3.7378,3.7375,3.7443,3.7449,3.7454,0,0,0,0,0,0,0,0,0,0,0,0,0,3.7275,3.7202,3.7396,3.7366,3.7364,3.7462,3.7464,3.7465,3.7386,3.7382,3.7377,3.7373,3.7442,3.7448,3.7455,3.7586,0,0,3.7476,3.7479,0,0,0,0,0,0,0,0,3.7271,3.7283,3.7369,3.7368,3.7366,3.7411,3.7418,3.7505,3.7387,3.7378,3.7376,3.7371,3.7437,3.7444,3.7466,3.7589,3.7592,3.7477,3.7481,3.7484,3.7486,0,0,0,0,0,0,0,3.7266,3.728,3.7422,3.7371,3.7369,3.7348,3.7355,3.7435,3.7432,3.7378,3.7373,3.7382,3.7435,3.746,3.7467,3.7593,3.7476,3.7483,3.7487,3.7489,3.7822,3.7826,0,0,0,0,0,0,3.7264,3.7276,3.742,3.7424,3.7307,3.7356,3.7363,3.7401,3.743,3.7431,3.7385,3.7378,3.745,3.746,3.747,3.7621,3.7484,3.749,3.7494,3.7817,3.7823,3.7828,0,0,0,0,0,0,3.726,3.7278,3.7417,3.7348,3.7365,3.7364,3.7408,3.7405,3.7429,3.7436,3.7435,3.7411,3.7447,3.746,3.7556,3.7622,3.7493,3.7499,3.7812,3.7819,3.7825,3.7927,0,0,0,0,0,0,3.7255,3.7277,3.7327,3.735,3.7369,3.7504,3.7412,3.7409,3.7441,3.7432,3.746,3.746,3.7445,3.7547,3.7563,3.7629,3.7505,3.7806,3.7815,3.7823,3.7918,3.7937,3.7953,0,0,0,0,0,3.7248,3.7354,3.733,3.7348,3.7432,3.7508,3.7519,3.7499,3.7447,3.7497,3.75,3.7459,3.7613,3.7557,3.7575,3.7644,3.7801,3.7812,3.7822,3.791,3.7933,3.7953,0,0,0,0,0,0,3.734,3.7357,3.733,3.7447,3.7477,3.7495,3.7557,3.7525,3.757,3.7559,3.7533,3.754,3.7642,3.7653,3.7591,3.777,3.7698,3.7713,3.7759,3.7781,3.7798,3.7791,3.7511,0,0,0,0,0,3.7374,3.7435,3.7446,3.7548,3.7564,3.7559,3.7591,3.7573,3.7603,3.7615,3.7626,3.7656,3.771,3.7747,3.7798,3.792,3.7923,3.7976,3.7994,3.8008,3.802,3.8081,3.8104,3.7863,3.7863,3.7862,0,0,3.7444,3.7461,3.7501,3.7567,3.7588,3.765,3.757,3.764,3.7685,3.7626,3.7716,3.7725,3.7757,3.7865,3.7914,3.7878,3.8088,3.8022,3.8033,3.8037,3.8094,3.8117,3.8137,3.787,3.7869,3.7867,0,0,3.7604,3.7625,3.7709,3.7731,3.7763,3.7758,3.7779,3.7801,3.7804,3.7895,3.785,3.7904,3.8,3.8022,3.8046,3.8212,3.8174,3.823,3.832,3.838,3.8399,3.8416,3.847,3.8491,3.8242,3.8243,3.8243,0,3.7687,3.778,3.7757,3.783,3.7858,3.7807,3.7891,3.7914,3.7961,3.7981,3.7941,3.8057,3.8075,3.8186,3.8226,3.8249,3.8269,3.8225,3.8398,3.8415,3.843,3.8482,3.8503,3.8249,3.8248,3.8247,3.8247,0,3.7878,3.7943,3.8008,3.8053,3.809,3.8168,3.8156,3.8196,3.8174,3.8173,3.8264,3.8284,3.8335,3.8361,3.8342,3.8469,3.8445,3.8403,3.8329,3.8459,3.8507,3.8527,3.8258,3.8255,3.8253,3.8252,0,0,3.8097,3.8127,3.8151,3.8169,3.82,3.8249,3.8324,3.8374,3.8406,3.8441,3.85,3.8582,3.8541,3.8568,3.8551,3.8604,3.8729,3.8554,3.8554,3.8582,3.8865,3.8894,3.8917,3.8705,3.8709,3.8712,3.886,0,3.8253,3.8382,3.8363,3.8487,3.8544,3.8495,3.856,3.8585,3.8586,3.8634,3.8634,3.869,3.8635,3.865,3.8701,3.8703,3.8784,3.8692,3.8757,3.876,3.8747,3.8943,3.8975,3.9114,3.888,3.8883,3.8885,0,3.8453,3.8492,3.8621,3.8639,3.8662,3.8721,3.8763,3.8811,3.8837,3.8834,3.8863,3.8836,3.8908,3.8836,3.8934,3.8872,3.8897,3.8902,3.8907,3.8909,3.8828,3.8947,3.9159,3.9178,3.8915,3.8913,3.8911,0,3.8594,3.868,3.8766,3.8784,3.8809,3.885,3.8862,3.8884,3.8914,3.8952,3.897,3.9017,3.9041,3.9076,3.9061,3.901,3.916,3.9088,3.9156,3.9157,3.9188,3.9185,3.9402,3.9211,3.9211,3.9211,3.921,0,3.8768,3.8848,3.8829,3.8883,3.897,3.8947,3.9033,3.904,3.9059,3.9111,3.9073,3.9123,3.9101,3.9149,3.9138,3.9218,3.9231,3.9228,3.9223,3.9229,3.9229,3.9243,3.9231,3.9216,3.9215,3.9214,3.9213,0,3.8939,3.893,3.9021,3.9036,3.9042,3.9105,3.9117,3.9166,3.9163,3.9229,3.9244,3.9239,3.9293,3.9282,3.9342,3.9334,3.9433,3.9419,3.9424,3.9419,3.9487,3.9479,3.9718,3.9746,3.9541,3.9543,3.9544,0,3.9048,3.9108,3.9129,3.9161,3.9175,3.9228,3.9258,3.9237,3.927,3.9303,3.9347,3.9397,3.9436,3.9524,3.9526,3.957,3.9554,3.9635,3.956,3.9563,3.955,3.9545,3.9548,3.9648,3.965,3.9652,3.9654,0,3.9243,3.9235,3.9279,3.9322,3.9358,3.9391,3.942,3.9448,3.943,3.9468,3.9522,3.9552,3.9612,3.9661,3.9702,3.9713,3.9679,3.9678,3.9695,3.97,3.9698,3.9695,3.946,3.9671,3.967,3.9668,3.9668,3.9667,3.9383,3.9432,3.9453,3.9503,3.9523,3.955,3.9595,3.9597,3.9642,3.9688,3.9674,3.9735,3.9756,3.9808,3.9824,3.9869,3.9839,3.9866,3.9872,3.9877,3.9883,3.9694,3.9878,3.9877,3.9877,3.9876,3.9876,0,3.9571,3.9582,3.9628,3.9668,3.9707,3.9673,3.9703,3.9737,3.979,3.9814,3.9852,3.9912,3.9959,3.9964,4.0008,4.0043,4.0029,4.0055,4.005,4.0052,3.991,3.9889,4.0066,4.0066,4.0066,4.0066,4.0066,4.0066,3.9673,3.9753,3.9747,3.9835,3.9846,3.9904,3.9923,3.9947,3.9965,4.0034,4.0072,4.0075,4.009,4.0134,4.0175,4.0175,4.019,4.0222,4.0216,4.0082,4.0063,4.0045,4.0024,4.0227,4.0227,4.0353,4.0354,4.0355]},{"header":{"parameterUnit":"m.s-1","parameterCategory":1,"la1":30.2991,"la2":30.254,"lo1":-89.0895,"lo2":-89.0444,"dy":0.0017,"dx":0.0017,"nx":28,"ny":28,"refTime":"2024-07-29T03:00:00:Z","depth":0,"parameterNumber":3,"parameterNumberName":"V-component_of_WINDS"},"data":[0,0,0,0,0,0,0,0,0,0,0,0,0,0,0,0,0,0,0,0,0,0,0,0,0,0,0,0,0,0,0,0,0,0,0,0,0,0,0,0,0,0,0,0,0,0,0,0,0,0,0,0,0,0,0,0,0,0,2.3562,2.3563,0,2.3669,2.367,2.3672,2.3678,2.3677,2.3676,2.3675,2.3785,2.3789,2.3793,0,0,0,0,0,0,0,0,0,0,0,0,0,2.3362,2.3366,2.3562,2.3563,2.3565,2.3669,2.3671,2.3672,2.3678,2.3677,2.3675,2.3674,2.3784,2.3789,2.3794,0,0,0,0,0,0,0,0,0,0,0,0,0,2.3457,2.3367,2.3562,2.358,2.3583,2.3669,2.3671,2.3672,2.3679,2.3677,2.3675,2.3673,2.3782,2.3788,2.3794,2.3869,0,0,2.3813,2.3816,0,0,0,0,0,0,0,0,2.3452,2.3465,2.3576,2.3579,2.3582,2.3658,2.3641,2.3738,2.3679,2.3642,2.3675,2.3672,2.3745,2.3754,2.3778,2.3874,2.3879,2.3814,2.3817,2.382,2.3822,0,0,0,0,0,0,0,2.3445,2.346,2.3604,2.3578,2.3582,2.3583,2.3595,2.3659,2.3703,2.3645,2.3646,2.3659,2.3746,2.3772,2.378,2.388,2.3813,2.3819,2.3823,2.3825,2.4041,2.4043,0,0,0,0,0,0,2.3435,2.3454,2.3601,2.3608,2.3511,2.3588,2.3601,2.3636,2.3702,2.371,2.366,2.3659,2.3762,2.3773,2.3784,2.3875,2.382,2.3826,2.3829,2.4039,2.4042,2.4044,0,0,0,0,0,0,2.3431,2.3448,2.3597,2.3531,2.355,2.3594,2.3633,2.3639,2.3665,2.3713,2.3721,2.3679,2.3761,2.3776,2.3847,2.3879,2.3828,2.3834,2.4037,2.404,2.4043,2.4057,0,0,0,0,0,0,2.3425,2.3446,2.3475,2.3532,2.3554,2.3658,2.3635,2.3642,2.3675,2.3674,2.3732,2.374,2.3761,2.3838,2.3853,2.3886,2.3839,2.4034,2.4038,2.4042,2.4054,2.406,2.4066,0,0,0,0,0,2.3418,2.3476,2.3477,2.3495,2.3591,2.366,2.3672,2.3695,2.3678,2.3707,2.3738,2.3739,2.3873,2.3845,2.3863,2.3898,2.4032,2.4037,2.4042,2.4051,2.4059,2.4066,0,0,0,0,0,0,2.3422,2.3483,2.3485,2.3563,2.3606,2.3661,2.3698,2.3702,2.3751,2.3748,2.3774,2.3787,2.3858,2.3885,2.3853,2.3973,2.3951,2.3959,2.3952,2.396,2.3966,2.3957,2.3844,0,0,0,0,0,2.3432,2.3483,2.3534,2.3598,2.3619,2.3655,2.3686,2.3699,2.3745,2.3763,2.3799,2.3843,2.3895,2.3929,2.398,2.4058,2.407,2.4091,2.4097,2.4101,2.4108,2.415,2.4159,2.4059,2.4059,2.4059,0,0,2.3454,2.3493,2.3524,2.36,2.3634,2.3686,2.367,2.3726,2.3765,2.3772,2.3841,2.3869,2.392,2.3995,2.4029,2.402,2.4138,2.4107,2.411,2.4115,2.4156,2.4165,2.4173,2.4063,2.4062,2.4062,0,0,2.3519,2.3554,2.3611,2.3646,2.3698,2.3721,2.3735,2.3789,2.3807,2.3877,2.3883,2.3929,2.4019,2.4055,2.4085,2.4162,2.4164,2.4177,2.4208,2.4249,2.4256,2.4263,2.429,2.4299,2.4184,2.4184,2.4184,0,2.3539,2.3617,2.3639,2.3695,2.3727,2.3735,2.3792,2.3825,2.3892,2.3914,2.3902,2.4013,2.4049,2.4131,2.415,2.4174,2.419,2.4171,2.4253,2.4261,2.4268,2.4293,2.4303,2.4185,2.4185,2.4185,2.4185,0,2.3638,2.3692,2.3732,2.3795,2.3832,2.3888,2.3918,2.3953,2.3963,2.3987,2.4057,2.41,2.4158,2.4179,2.419,2.4263,2.4255,2.4248,2.4226,2.4278,2.4302,2.4313,2.4187,2.4187,2.4186,2.4186,0,0,2.371,2.3784,2.3798,2.3826,2.3884,2.3926,2.3982,2.4039,2.4068,2.4113,2.416,2.4235,2.4228,2.4262,2.4277,2.4312,2.4369,2.4301,2.4303,2.4311,2.4451,2.4456,2.4467,2.4371,2.4373,2.4375,2.4447,0,2.3781,2.388,2.3901,2.3986,2.4036,2.4044,2.4092,2.4133,2.4157,2.4202,2.4229,2.4281,2.4269,2.4289,2.4325,2.4355,2.4398,2.435,2.4415,2.4417,2.4401,2.448,2.4485,2.4551,2.4456,2.4458,2.4459,0,2.3877,2.3923,2.4014,2.4064,2.4085,2.4129,2.4182,2.4225,2.4271,2.4286,2.4323,2.4333,2.4391,2.4367,2.4446,2.4413,2.4441,2.4459,2.4462,2.4469,2.4441,2.4487,2.4572,2.4582,2.4475,2.4473,2.4472,0,2.3918,2.4004,2.4069,2.4093,2.4153,2.4183,2.421,2.4254,2.4286,2.4333,2.4354,2.4407,2.4435,2.4476,2.45,2.448,2.4577,2.4555,2.4591,2.459,2.4611,2.4609,2.47,2.4629,2.4629,2.4629,2.4629,0,2.3995,2.4049,2.4088,2.4128,2.4189,2.4212,2.4272,2.4299,2.4338,2.4382,2.4393,2.4434,2.4464,2.451,2.4529,2.4591,2.4605,2.4618,2.4622,2.4617,2.4615,2.4635,2.463,2.4632,2.4631,2.4631,2.463,0,2.4052,2.408,2.4151,2.4202,2.4216,2.4258,2.4302,2.4341,2.4364,2.4421,2.4435,2.4473,2.4527,2.4555,2.4623,2.4636,2.4706,2.4708,2.469,2.4692,2.4725,2.4721,2.4832,2.4848,2.4767,2.4768,2.4768,0,2.4098,2.414,2.4195,2.4226,2.4253,2.4302,2.4335,2.4359,2.4393,2.4448,2.4479,2.4534,2.4579,2.4665,2.4699,2.475,2.4753,2.4788,2.4761,2.4754,2.4753,2.4749,2.4753,2.4793,2.4794,2.4794,2.4795,0,2.4177,2.4189,2.4236,2.4287,2.4326,2.4368,2.4409,2.4433,2.4464,2.4501,2.4557,2.4591,2.466,2.4714,2.4768,2.4795,2.48,2.4803,2.4814,2.4808,2.4796,2.4802,2.4702,2.4801,2.48,2.48,2.4799,2.4799,2.423,2.4267,2.4311,2.4363,2.4396,2.4434,2.4473,2.4501,2.4547,2.4605,2.4616,2.4674,2.4718,2.4791,2.482,2.4866,2.4858,2.4874,2.4878,2.4881,2.4882,2.4789,2.4876,2.4876,2.4875,2.4875,2.4875,0,2.4309,2.4337,2.4384,2.4441,2.4481,2.4482,2.4528,2.4561,2.4612,2.4652,2.4696,2.4759,2.4811,2.4848,2.4901,2.493,2.4933,2.4943,2.4941,2.4947,2.4887,2.4871,2.4939,2.4939,2.4939,2.4939,2.4939,2.4939,2.4354,2.4417,2.4434,2.4512,2.4541,2.4597,2.4623,2.4658,2.469,2.476,2.4803,2.4826,2.4865,2.492,2.4968,2.4977,2.4996,2.5005,2.5015,2.4958,2.4951,2.4945,2.493,2.5009,2.5009,2.5071,2.5071,2.5072]}]]